Location: Elbisheimerhof
(49.6096°N, 8.0492°E)
Time: 00:05:24
(UTC+00:00)

Daily predictions for brighter satellites

Satellite Brightness Start Highest point End
(mag) Time Altitude Azimuth Time Altitude Azimuth Time Altitude Azimuth
Cosmos 1328 3.6 00:02:26 38° SSW 00:03:38 68° W 00:07:14 10° N
OPS 8737 4.0 00:01:47 10° NW 00:04:49 81° NE 00:06:00 33° SE
Cosmos 1634 Rocket 4.1 00:00:20 10° NNW 00:06:35 67° W 00:10:18 25° S
Cosmos 2082 Rocket 4.3 00:03:26 10° NNW 00:08:13 27° NE 00:13:00 10° E
Cosmos 2278 Rocket 3.8 00:11:06 14° SE 00:14:26 22° E 00:18:42 10° NE
SJ 16-02 1.6 00:15:31 27° SW 00:17:46 61° WNW 00:22:04 10° NNE
CZ-2C R/B 2.7 00:14:32 21° SSE 00:18:07 79° ENE 00:23:29 10° NNW
USA 229 DEB 4.2 00:12:15 10° NW 00:19:35 72° NE 00:27:40 10° SE
USA 229 4.2 00:12:22 10° NW 00:19:41 72° NE 00:27:45 10° SE
Cosmos 1943 Rocket 3.8 00:17:38 13° SE 00:20:57 22° ESE 00:25:04 10° NE
Cosmos 2151 Rocket 4.0 00:17:17 10° N 00:21:40 57° ENE 00:24:39 20° SSE
Cosmos 371 Rocket 3.3 00:19:30 28° S 00:21:59 71° ESE 00:26:49 10° NNE
NOSS 2-1 (C) 4.2 00:20:27 10° WNW 00:23:48 32° SW 00:24:43 29° SSW
USA 307 2.8 00:20:42 14° WSW 00:23:56 71° NNW 00:27:54 10° ENE
Okean 2 Rocket 3.8 00:20:12 10° N 00:24:36 50° ENE 00:27:51 17° SSE
NOSS 2-1 (E) 4.2 00:24:05 10° WNW 00:27:28 33° SW 00:28:37 29° SSW
Cosmos 1741 Rocket 4.0 00:26:35 26° SSW 00:29:37 78° ESE 00:34:57 10° NNE
Okean 1 Rocket 3.8 00:30:23 10° N 00:34:44 49° ENE 00:38:19 14° SSE
Cosmos 375 4.4 00:31:35 10° NW 00:36:13 86° NE 00:40:05 10° SE
Cosmos 1025 Rocket 4.0 00:37:03 18° SSE 00:39:43 39° E 00:43:41 10° NNE
Cosmos 1844 Rocket 4.3 00:37:34 10° WSW 00:42:24 28° NW 00:47:16 10° NNE
Nadezhda 4 Rocket 4.1 00:38:07 20° S 00:42:31 71° E 00:48:46 10° NNE
Cosmos 1378 Rocket 3.5 00:40:25 27° S 00:42:48 89° E 00:47:13 10° N
USA 234 3.2 00:38:40 10° ENE 00:45:15 83° SSE 00:51:09 13° SW
In-Cosmos 22 Rocket 4.3 00:44:33 22° S 00:48:20 77° E 00:54:07 10° NNE
Cosmos 1340 Rocket 2.6 00:46:02 10° NNW 00:49:54 84° W 00:52:07 24° S
ADEOS II 4.4 00:50:40 10° NE 00:53:53 16° E 00:57:06 10° SE
USA 59 Rocket 1.6 00:51:24 10° WNW 00:54:12 18° WSW 00:54:17 18° SW
Cosmos 158 Rocket 4.1 00:49:30 10° NNW 00:54:38 74° ENE 00:59:35 10° SSE
Cosmos 1606 4.1 00:53:15 10° NW 00:55:14 16° W 00:55:43 16° W
ATLAS 3B R/B 3.0 00:54:56 10° NW 01:02:44 66° SW 01:10:13 10° SSE
Nimbus 7 Rocket 4.4 00:58:04 10° NNE 01:04:00 82° WNW 01:08:22 19° SSW
Cosmos 304 Rocket 4.2 01:00:52 20° SW 01:04:02 53° WNW 01:08:43 10° NNE
MOZ.5/SAFIR/RUBIN 5/SL-8 4.0 01:03:04 10° SSE 01:07:33 70° ENE 01:12:07 10° N
H-2A R/B 3.3 01:06:39 22° SW 01:07:55 27° W 01:11:04 10° NW
Cosmos 2026 Rocket 4.3 01:06:31 14° S 01:11:54 66° E 01:18:05 10° NNE
H-2A R/B 2.8 01:10:16 10° NNE 01:14:05 42° E 01:17:10 15° SSE
Cosmos 1869 3.7 01:13:13 10° NNW 01:16:44 40° W 01:18:36 22° SSW
Cosmos 1814 Rocket 4.4 01:12:13 10° NNW 01:17:20 47° WSW 01:21:14 17° S
USA 305 2.5 01:15:27 10° NW 01:17:46 37° NNE 01:19:17 10° E
IDEFIX/ARIANE 42P 2.7 01:12:47 10° NNE 01:18:03 77° ESE 01:22:10 17° S
SL-24 R/B - RUBIN 2 4.1 01:14:31 10° NW 01:19:07 40° WSW 01:22:27 15° S
ATLAS 2AS CENTAUR R/B 3.4 01:12:59 10° WSW 01:19:55 53° NW 01:26:39 10° NE
Cosmos 1455 Rocket 3.3 01:16:36 10° N 01:20:58 68° ENE 01:25:15 10° SSE
Cosmos 1833 Rocket 3.5 01:17:18 10° NW 01:22:17 33° WSW 01:25:45 17° SSW
Cosmos 2221 Rocket 3.7 01:21:46 20° SSW 01:24:43 63° WNW 01:29:08 10° N
Cosmos 1812 2.2 01:24:54 10° N 01:28:05 78° E 01:30:44 14° SSE
MSX 3.9 01:23:47 10° NNE 01:29:34 86° ESE 01:34:26 15° SSW
NPP 3.7 01:28:01 10° NNE 01:33:27 87° ESE 01:38:05 14° SSW
CZ-2C R/B 4.1 01:29:24 10° N 01:34:25 37° WNW 01:38:34 13° SW
Meteor 1-11 4.3 01:31:27 16° SSW 01:36:10 77° WNW 01:42:01 10° N
Sich 1 Rocket 4.3 01:32:30 10° NNW 01:36:36 37° W 01:39:38 16° SSW
ATLAS 5 CENTAUR R/B 3.2 01:34:58 10° SSE 01:36:37 14° ESE 01:38:20 10° E
Cosmos 332 Rocket 3.9 01:37:42 16° SSW 01:41:30 72° WNW 01:46:20 10° NNE
SL-4 R/B 2.1 01:37:57 10° WNW 01:41:57 71° N 01:45:44 10° E
Cosmos 2228 3.9 01:38:08 10° N 01:42:07 45° ENE 01:46:05 10° SSE
COSMOS 2406 3.7 01:37:35 10° NNW 01:43:20 66° ENE 01:49:03 10° SE
Resurs 1-4 Rocket 2.4 01:43:53 10° NNE 01:49:08 65° ESE 01:54:22 10° S
Cosmos 1666 3.2 01:49:41 10° SE 01:50:53 17° E 01:52:07 10° NE
Cosmos 2082 Rocket 2.2 01:47:10 10° NNW 01:52:51 73° WSW 01:58:31 10° SSE
USA 307 3.9 01:50:36 10° WNW 01:54:24 42° N 01:58:03 10° ENE
Meteor 1-27 4.5 01:50:27 10° N 01:56:18 80° ENE 02:02:09 10° SSE
SJ 16-02 3.9 01:55:55 10° WNW 01:56:53 11° NW 01:57:51 10° NNW
Cosmos 2278 Rocket 2.4 01:52:55 13° SW 01:57:57 69° WNW 02:03:38 10° NNE
CZ-2C R/B 4.3 01:56:00 11° SW 01:59:02 17° W 02:02:24 10° NW
Cosmos 2098 Rocket 2.5 01:56:14 10° N 02:00:10 88° W 02:03:27 10° S
CZ-2D R/B 2.3 01:58:01 10° NNE 02:03:28 78° ESE 02:08:49 10° SSW
Cosmos 1943 Rocket 2.3 01:59:08 12° SW 02:04:08 69° WNW 02:09:41 10° NNE
Cosmos 1544 Rocket 4.0 02:00:39 10° N 02:04:55 62° ENE 02:09:10 10° SSE
SL-16 R/B 3.3 01:59:36 10° SE 02:05:37 56° ENE 02:11:42 10° N
ALOS 2.8 02:01:21 10° NNE 02:05:53 56° E 02:10:22 10° S
Cosmos 1553 Rocket 4.0 02:16:44 10° NNW 02:22:43 63° W 02:28:42 10° S
S3M 4.4 02:18:10 10° N 02:24:34 73° E 02:30:57 10° SSE
Cosmos 1503 Rocket 4.5 02:21:49 10° S 02:26:59 61° ESE 02:32:08 10° NNE
USA 234 4.0 02:21:46 10° ENE 02:28:05 54° NNW 02:34:24 10° W
Geosat FO 4.4 02:26:14 10° S 02:29:08 45° WSW 02:32:06 10° NW
NOAA 11 4.3 02:26:53 10° NNE 02:32:26 89° ESE 02:37:55 10° SSW
Cosmos 2084 3.2 02:29:16 10° NW 02:33:15 89° SW 02:37:10 10° SE
Cosmos 1975 Rocket 3.7 02:29:43 10° SSW 02:33:58 44° WNW 02:38:14 10° N
ADEOS II 2.1 02:28:51 10° NNE 02:34:07 82° WNW 02:39:21 10° SSW
Cosmos 2369 Rocket 3.5 02:29:36 10° S 02:34:48 38° ESE 02:40:02 10° NE
Cosmos 292 Rocket 4.2 02:30:35 10° SW 02:35:17 53° WNW 02:40:00 10° NNE
Cosmos 2315 Rocket 4.5 02:31:23 10° N 02:37:40 69° ENE 02:43:57 10° SSE
Cosmos 2208 Rocket 4.5 02:33:20 10° NW 02:38:09 41° WSW 02:42:58 10° S
Cosmos 773 Rocket 4.3 02:37:05 10° NNW 02:42:04 47° WSW 02:47:03 10° S
